sat.trackr.live / text

‹ back to catalog

SWISSCUBE

NORAD 35932 · 2009-051B

PAYLOAD ACTIVE UNKNOWN

§ Identity

Operator
Country
SWTZ
Launch date
2009-09-23
Launch site
SRILR
Launch vehicle
Mass (kg)
RCS (m²)
0.05

Purposes: comms, tech_demo

External: N2YO · Heavens-Above · Gunter

§ Orbital elements

Epoch: 2026-09-20T04:41:13.987392Z

Period
98.45 min
Inclination
98.3943°
Eccentricity
0.0005465
Mean motion
14.62630664 rev/d
Perigee alt
680.8 km
Apogee alt
688.6 km
Semi-major
7,062.8 km
B*
1.2601e-4
RAAN
172.7006°
Arg perigee
281.7132°
Mean anomaly
78.3455°
Rev number
90,304

§ Raw data

SWISSCUBE1 35932U 09051B   26263.19530078  .00000591  00000+0  12601-3 0  99962 35932  98.3943 172.7006 0005465 281.7132  78.3455 14.62630664903043

JSON: /api/v1/satellites/35932 · /tle

For live sub-satellite position, see the globe view (requires WebGL).

§ Visibility from observer

Set your observer location to see the next 7 days of passes ≥ 10°. The values pass through the URL so the page stays shareable.

No JS? Fill the form by hand. The geolocation button needs JavaScript.

§ Radio — SatNOGS DB

ModeDescriptionDownlinkUplink
CW CW Beacon 437.505 MHz
AFSK FSK 1k2 Beacon 437.505 MHz
BPSK PE0SAT - 1k2 BPSK AFSK Tones 437.500 MHz
CW PE0SAT - CW Beacon 437.501 MHz

4 transmitters · refreshed weekly from db.satnogs.org